Dewpoint
51 52 52 52 52 52 52 52 49 49 49 46 48 38 30 25 24 35 37 41 45 30 24 23 28 24 26 32 26 28 26 26 28 25 26 23 26 21 22 25 21 21 21 19 15 19 18 16 11 15 14 17 24 30 29 29 28 23 12 18 15 23 16 12 10 11 13 10 11 9 11 11 10 9 10 12 12 11 9 8 9 7 8 6 5 5 7
52 52 52 52 52 51 52 50 48 46 49 48 45 35 33 27 24 29 42 43 35 30 18 23 26 22 26 26 25 28 27 24 24 22 23 20 17 21 21 22 22 21 24 16 15 19 18 18 14 17 13 12 29 30 30 28 20 20 18 16 22 17 10 10 11 13 11 5 6 8 10 10 7 11 9 11 13 14 13 12 9 5 8 6 5 3 6
52 52 52 52 51 52 50 47 45 46 47 49 43 34 33 24 29 26 26 30 31 28 36 23 24 22 24 23 22 24 22 28 29 24 23 24 18 19 17 21 22 22 24 24 20 21 18 13 14 18 17 23 27 28 28 27 23 30 31 27 22 17 13 9 8 9 9 9 9 9 10 14 8 8 8 12 16 16 12 7 7 5 7 7 7 6 6
52 51 51 51 51 52 50 48 45 46 49 45 45 39 32 32 15 26 23 27 26 24 27 29 23 23 21 21 19 19 17 25 30 30 26 25 24 19 24 23 19 22 22 20 20 20 19 17 19 16 17 17 26 25 27 28 30 28 28 27 21 20 13 8 10 10 9 11 14 14 14 9 12 17 17 16 14 16 13 10 7 6 9 7 8 9 7
51 51 51 51 51 51 50 46 46 47 48 48 44 39 33 29 20 19 16 26 22 18 25 22 21 22 19 13 21 22 18 23 25 30 18 26 26 22 23 23 19 18 19 19 17 19 19 18 19 20 20 20 17 26 30 29 28 27 28 27 20 18 14 16 14 14 14 10 10 11 12 9 8 14 16 19 15 15 13 8 8 10 7 5 9 7 10
51 51 51 51 51 51 50 49 45 46 49 44 46 32 31 26 27 28 31 31 19 20 18 26 26 25 23 22 21 20 20 21 24 23 23 27 24 21 21 22 22 17 18 18 18 19 19 19 20 21 19 22 17 19 26 27 29 28 24 23 22 16 13 20 16 18 12 12 10 10 10 9 9 10 10 15 16 15 12 13 12 9 7 6 6 7 8
51 51 51 51 51 50 51 51 49 48 47 44 40 37 29 29 25 26 30 30 18 24 28 31 28 27 21 14 22 22 19 21 22 20 22 23 19 24 17 17 18 18 20 19 18 17 17 20 25 21 22 24 21 20 21 25 27 25 20 22 20 18 14 20 17 16 11 10 10 11 9 7 8 13 9 9 10 17 16 13 11 10 10 7 6 7 7
51 51 51 50 50 51 51 51 50 49 45 44 38 36 32 29 25 18 27 27 23 20 18 27 27 21 19 15 18 18 20 21 20 21 21 18 21 21 17 17 18 22 21 21 18 18 20 18 20 26 26 21 21 21 22 24 20 21 24 21 22 18 13 19 16 14 15 15 14 13 8 8 8 7 8 7 7 8 12 15 12 11 10 9 8 9 10
51 51 50 50 50 51 50 51 52 49 45 38 37 34 33 34 31 33 22 21 20 23 14 19 19 10 15 15 22 19 21 20 23 24 25 21 19 20 18 21 26 27 24 22 21 22 23 18 20 23 21 19 22 20 20 20 23 22 21 22 21 16 16 17 15 12 13 10 8 10 9 6 8 7 8 6 6 11 10 12 12 12 13 12 12 12 11
51 51 50 50 50 50 51 51 51 49 46 46 32 33 30 34 30 36 35 19 14 14 13 12 16 17 20 27 23 21 20 23 23 15 26 24 29 28 25 25 19 24 26 24 24 26 25 26 24 22 21 15 15 15 15 15 23 23 23 23 18 19 15 12 12 10 14 9 8 8 8 9 12 15 11 9 6 7 8 9 9 9 8 11 9 11 10
51 50 50 51 50 50 51 51 51 49 46 37 37 38 32 36 30 26 32 21 18 20 13 11 21 28 25 31 27 25 22 22 27 20 18 27 31 30 28 24 19 13 20 28 30 29 27 24 23 22 22 20 17 17 18 23 19 24 24 20 18 20 17 13 16 9 11 12 9 9 9 12 12 7 13 10 6 6 5 5 6 6 7 8 8 9 9
50 50 50 51 51 50 50 51 51 50 46 46 40 40 39 40 38 34 28 19 20 19 19 13 10 26 28 28 28 25 22 22 24 27 18 26 31 27 26 24 21 18 28 27 27 27 29 29 28 25 26 26 25 25 24 23 21 23 20 22 19 18 16 13 14 9 10 14 12 13 13 14 9 6 6 6 7 6 6 6 7 7 7 8 9 10 10
50 50 50 50 50 50 50 51 51 50 46 44 41 37 39 36 41 36 30 21 20 18 12 19 27 28 27 27 26 27 27 28 29 28 28 29 28 27 29 26 22 28 29 27 27 26 25 22 22 24 22 25 26 26 27 26 24 24 20 20 20 16 14 13 11 11 11 11 11 11 15 15 10 6 6 8 6 6 6 8 8 8 8 9 9 10 10
49 49 50 50 50 50 50 51 51 49 45 44 41 41 34 40 39 38 35 17 18 19 22 22 26 23 24 26 26 26 25 23 18 22 27 29 28 30 32 33 33 29 29 26 24 19 12 12 15 19 15 12 17 18 27 25 24 24 24 22 18 17 16 12 10 16 10 11 10 11 12 10 9 6 5 6 6 7 8 10 11 10 10 10 10 10 10
49 49 49 50 50 50 50 50 49 47 42 41 40 37 36 40 39 36 38 32 18 23 22 20 20 24 25 24 25 19 23 21 19 19 27 28 30 32 33 32 31 31 29 22 18 13 19 15 15 14 15 15 14 13 14 12 18 19 20 17 18 16 14 9 11 14 11 8 8 11 12 14 13 9 11 8 8 9 9 9 12 10 11 11 10 9 10
48 49 49 50 50 50 49 48 47 44 41 44 39 37 37 37 36 40 37 33 20 15 24 29 30 27 21 21 25 23 19 20 18 18 22 25 30 29 31 31 30 28 24 19 14 16 15 16 15 12 11 14 16 7 16 9 10 14 14 16 18 15 11 15 11 11 9 9 8 9 10 15 11 6 9 12 9 10 11 10 11 11 10 10 10 10 10
48 49 49 49 49 49 48 47 45 42 40 41 37 37 35 37 40 42 38 31 30 22 27 30 34 30 20 15 17 13 19 16 14 13 15 20 27 29 30 29 28 27 24 15 14 14 14 13 12 11 18 10 14 13 8 7 6 8 11 12 10 12 12 11 10 11 10 10 7 9 15 15 11 8 9 8 9 10 9 11 13 10 9 10 11 11 10
48 48 48 47 48 48 47 46 42 44 44 44 40 38 36 37 36 37 41 36 27 24 28 31 35 21 16 24 18 23 24 19 18 16 16 20 24 26 27 27 26 29 30 22 18 14 14 12 12 13 12 8 10 10 11 9 11 13 7 8 12 14 12 11 11 11 11 12 9 11 12 13 14 8 8 9 11 10 11 12 14 11 10 11 12 11 11
48 47 47 47 47 45 44 44 47 45 43 43 41 39 36 36 37 38 44 33 25 22 31 31 30 32 29 29 33 28 29 30 24 20 19 18 19 28 27 27 27 22 23 17 15 16 13 15 8 13 12 11 8 12 7 10 11 6 7 7 15 14 13 10 10 9 10 11 10 11 14 14 8 9 9 11 14 12 13 11 12 10 9 11 12 11 11
47 47 47 47 47 48 47 46 45 43 42 42 39 37 35 36 37 37 43 24 30 29 29 32 32 32 32 35 24 21 21 23 21 22 15 15 25 28 21 21 21 19 14 12 16 9 13 13 14 8 11 13 9 10 10 10 8 7 8 19 14 15 14 13 12 17 11 12 9 10 13 18 9 11 10 12 11 11 13 11 12 14 11 11 10 11 11
47 47 46 46 45 45 45 44 44 45 43 42 40 37 33 34 37 38 38 36 28 24 26 31 31 31 31 30 30 30 33 29 24 17 21 25 23 24 13 17 20 17 17 17 14 15 15 13 14 14 12 8 8 9 12 14 16 8 8 18 15 20 13 13 14 15 11 11 10 13 15 12 11 9 12 11 11 12 14 14 10 13 12 10 10 11 11
47 48 47 47 47 45 44 45 45 43 41 41 41 35 29 31 35 36 35 34 31 30 30 30 30 30 31 31 30 31 31 30 31 31 27 21 24 23 16 15 19 18 16 16 15 15 16 14 15 14 14 11 8 11 10 10 11 19 11 13 11 15 16 18 12 18 14 11 14 16 14 13 11 10 10 11 12 14 16 15 13 11 10 12 11 11 11
46 46 47 47 48 47 46 45 43 42 42 41 40 39 29 30 32 34 38 27 30 32 32 31 32 32 33 33 32 32 31 32 33 31 31 27 23 20 18 18 18 26 21 17 18 18 18 15 15 16 13 14 14 15 17 12 12 17 15 10 15 12 12 8 9 14 13 13 14 18 15 15 15 12 13 13 13 14 15 15 11 12 12 12 11 11 11
44 44 44 45 45 44 46 47 47 46 41 41 39 35 31 34 34 34 30 29 25 24 28 32 31 26 28 31 32 32 31 32 32 32 32 32 26 22 22 23 26 25 21 25 23 21 17 17 16 14 15 18 16 12 11 12 17 13 16 14 18 10 9 9 12 12 10 12 11 11 12 13 15 14 14 15 15 15 15 13 12 12 13 12 12 12 11
45 44 44 43 43 43 42 42 42 43 42 40 37 36 34 32 33 32 35 19 22 25 21 25 25 31 32 32 31 31 32 31 33 32 32 31 31 29 26 31 31 28 25 24 15 17 16 17 15 15 15 17 19 11 10 15 16 10 12 17 13 16 10 8 9 8 7 8 11 13 13 14 14 13 13 15 14 14 14 14 13 13 14 12 12 11 9
45 45 44 44 44 43 43 43 43 42 41 42 41 39 38 35 35 35 36 32 31 21 24 19 27 33 30 31 31 32 33 32 31 32 33 33 33 31 30 30 29 27 22 19 23 21 17 17 15 14 15 16 11 13 13 10 9 9 9 13 11 11 14 12 9 8 8 10 10 11 12 12 13 14 15 15 14 14 14 13 12 12 12 12 12 11 9
43 43 43 43 43 43 42 42 43 41 41 41 40 39 36 34 37 34 37 37 26 20 24 21 25 27 31 30 31 33 32 32 32 32 32 32 33 31 31 31 26 23 23 22 21 19 17 16 15 16 17 18 20 16 19 14 12 16 16 13 14 11 14 12 14 13 14 13 13 11 14 14 11 14 14 15 16 14 13 12 11 12 12 12 11 9 8
43 44 44 44 42 41 40 41 42 40 39 37 37 35 36 33 33 34 34 35 31 24 23 20 23 26 30 31 32 30 32 31 31 31 31 31 31 30 31 30 28 26 22 21 18 18 17 17 16 19 18 22 16 16 18 18 17 16 16 11 11 10 12 11 15 15 15 15 16 16 14 13 11 13 17 15 14 12 11 11 12 12 13 12 11 10 7
45 46 46 45 45 44 42 40 40 39 39 39 40 38 37 38 38 36 37 35 36 27 22 21 21 22 25 27 31 31 31 31 29 30 30 30 31 31 30 30 27 26 25 23 22 21 19 19 18 18 18 16 15 16 16 14 15 15 14 14 12 13 14 14 13 14 13 15 15 20 14 11 11 13 12 11 13 11 11 11 11 12 12 12 12 10 9
44 44 44 44 44 44 44 43 45 41 39 37 37 29 26 28 36 37 37 37 36 28 20 21 20 22 23 30 31 30 30 31 29 30 31 29 29 29 29 26 26 22 26 24 23 20 20 25 23 17 18 20 17 17 13 15 14 11 11 14 15 15 14 16 16 13 12 15 18 14 14 12 12 10 10 10 12 12 11 10 11 11 12 12 11 10 8
44 44 43 43 43 44 44 44 45 42 37 35 33 22 22 16 29 40 38 37 34 34 22 21 18 20 21 24 25 25 29 29 27 29 29 28 28 27 30 29 28 23 24 23 23 22 22 19 22 20 19 18 19 17 17 14 13 18 14 14 15 15 15 15 18 18 19 19 18 13 12 12 14 12 11 11 11 12 12 12 13 16 13 12 10 9 6
44 44 44 43 42 42 44 44 42 39 38 35 30 30 26 34 36 39 38 36 35 35 20 18 17 17 20 24 23 28 30 29 27 28 24 26 26 24 27 24 27 24 26 25 25 24 21 19 23 24 23 24 23 18 16 14 15 19 16 15 17 18 18 17 16 17 17 16 15 16 13 13 13 11 11 11 11 12 12 12 12 12 13 12 10 9 6
45 45 44 44 42 41 42 41 40 36 29 32 38 42 41 40 40 38 38 35 35 25 25 22 15 15 16 17 18 25 28 24 18 16 25 23 24 18 24 20 22 21 33 23 21 21 21 21 19 21 21 20 21 17 16 17 16 17 17 17 18 18 15 15 13 13 12 12 12 13 13 13 12 12 12 12 12 13 13 13 13 12 10 9 9 7 6
46 45 45 45 44 43 42 41 40 39 39 39 26 26 31 41 36 36 38 35 24 22 22 20 16 13 16 22 17 24 24 20 21 16 18 19 18 16 18 16 18 22 22 22 19 17 17 19 20 21 18 20 22 17 17 15 16 16 16 16 16 16 15 14 13 13 13 13 12 13 13 13 13 13 13 13 13 12 13 13 12 11 11 10 10 8 6
46 46 47 46 44 44 45 42 37 35 32 33 32 33 35 40 39 34 36 33 24 17 22 20 20 17 14 17 14 22 21 19 22 19 18 19 18 22 16 18 17 18 20 19 15 16 21 18 18 19 17 18 16 16 19 16 16 16 16 16 15 15 14 13 14 15 14 14 14 14 14 14 14 14 14 15 14 14 14 14 12 12 11 10 10 9 7
47 46 45 43 44 39 40 39 31 36 29 28 29 33 40 41 37 37 38 37 30 15 18 15 17 14 15 16 16 19 21 24 22 21 22 24 19 14 15 17 16 17 20 22 19 15 17 16 18 17 16 15 16 18 16 17 16 16 15 14 14 14 17 14 14 14 13 15 16 16 15 16 16 16 16 16 16 15 14 14 12 12 13 13 11 10 8
45 44 42 40 35 36 26 26 31 32 29 32 36 37 38 40 40 39 36 32 29 27 19 18 17 14 10 17 14 23 19 20 16 20 18 18 18 20 19 17 16 23 23 18 17 16 14 15 16 14 12 14 20 17 16 16 16 15 14 15 15 15 14 13 14 13 14 15 15 15 14 16 18 18 16 17 16 16 15 14 14 12 13 14 14 12 11
42 39 36 30 33 25 21 24 28 34 38 38 37 31 24 23 16 20 23 18 21 25 19 21 17 19 16 16 15 21 21 18 15 16 15 17 20 18 16 16 17 21 16 14 12 14 16 16 14 14 17 16 15 15 15 15 16 15 14 14 14 13 13 13 13 13 17 15 15 15 15 18 16 16 18 18 18 17 16 15 15 15 15 16 16 15 13
36 34 35 31 29 17 17 29 41 36 38 34 34 16 16 20 16 20 19 16 19 18 17 20 16 15 18 19 17 27 18 19 18 16 16 21 20 17 14 13 16 15 13 12 13 12 12 12 12 11 11 17 14 13 14 15 13 14 14 14 14 14 13 13 13 13 13 13 13 14 14 14 15 15 17 19 18 18 17 17 16 16 16 18 17 16 16
34 31 24 28 17 24 34 35 35 32 29 21 19 20 17 18 24 18 16 18 15 15 18 18 17 17 15 14 17 18 23 19 17 17 16 17 21 16 14 14 11 14 11 11 13 15 12 12 7 9 12 19 16 13 12 12 12 13 13 13 13 13 13 13 13 13 13 13 13 14 15 16 17 17 17 17 17 18 18 18 17 16 18 18 17 18 17
33 31 29 18 31 38 29 30 29 28 18 19 26 20 22 23 16 15 16 18 16 14 18 18 19 19 19 17 14 18 20 22 20 18 18 15 20 21 15 12 12 10 9 9 12 11 9 8 9 10 17 17 13 12 13 13 13 14 14 15 16 16 15 15 15 15 15 16 16 17 19 24 24 23 21 21 20 18 19 19 20 20 20 19 17 16 16
33 25 28 35 32 35 32 28 22 19 20 18 19 15 15 17 16 15 16 18 16 15 17 21 18 20 18 16 21 21 19 21 19 16 16 14 19 18 13 9 8 8 8 9 11 9 9 10 12 14 19 16 13 14 14 13 14 16 16 17 18 18 18 18 17 18 18 18 18 20 21 24 26 25 25 25 24 25 25 25 25 23 21 20 19 19 15
34 34 31 31 25 21 20 22 24 22 14 18 16 16 17 15 14 15 17 15 15 16 18 22 22 25 22 19 20 18 19 25 22 16 15 11 19 10 9 7 7 8 9 10 9 8 8 10 14 18 17 12 12 14 15 15 17 18 19 19 20 19 19 19 20 21 21 23 25 25 25 26 26 26 26 26 26 24 24 22 22 23 24 21 19 18 16
33 30 32 27 21 23 23 15 20 22 17 15 18 14 15 17 21 14 16 18 17 16 17 18 18 17 18 18 17 19 20 24 19 12 11 9 11 9 6 8 9 10 10 9 7 9 13 14 16 17 12 12 16 15 17 19 20 20 21 20 20 20 21 23 23 25 25 25 27 28 27 27 25 27 27 26 24 23 23 23 22 22 21 20 19 18 17
22 24 28 22 20 25 20 12 22 18 12 14 21 19 18 16 20 19 20 22 19 20 20 18 16 17 15 17 18 17 21 14 18 18 13 10 8 6 9 11 7 9 8 9 9 9 10 14 18 18 13 14 16 17 19 21 21 21 21 22 22 22 22 23 23 25 25 25 27 27 27 26 26 26 26 26 25 25 23 22 22 21 20 18 17 17 16
27 23 23 15 12 17 19 13 14 14 22 22 21 22 22 22 20 20 21 17 17 17 17 17 16 15 14 15 15 14 12 12 12 10 9 8 9 10 9 7 8 9 8 6 8 12 18 24 13 12 15 18 19 20 22 22 23 23 24 22 22 23 23 25 26 26 26 26 26 27 27 27 26 26 25 24 25 24 24 23 22 20 19 17 16 15 15
22 22 22 19 13 17 18 17 18 23 20 21 21 22 23 21 20 19 17 18 19 19 17 15 16 15 16 14 13 12 11 11 10 10 10 8 8 8 8 8 7 6 9 12 14 16 19 14 13 16 19 21 22 24 24 23 23 23 23 23 23 24 25 25 26 26 26 27 28 27 27 26 26 25 26 25 25 24 23 22 21 20 18 17 16 15 14
19 22 19 12 11 18 19 21 17 19 16 17 17 15 15 16 19 22 18 17 17 15 20 17 15 15 14 13 15 14 10 8 10 9 9 9 9 8 7 5 7 8 9 12 15 15 13 14 19 21 23 25 25 25 24 23 24 24 24 24 25 25 25 26 26 26 27 28 28 28 28 28 27 27 26 25 24 24 23 23 21 19 18 17 16 14 13
24 19 16 17 17 17 20 17 19 21 23 17 15 16 17 20 22 22 17 16 18 19 18 17 15 14 13 9 10 9 10 10 10 9 7 8 8 7 6 9 9 13 18 14 19 14 15 18 25 28 28 28 28 26 24 23 24 24 25 26 27 26 26 26 27 27 28 29 29 29 28 28 28 27 26 25 24 23 23 23 21 19 17 16 14 13 12
22 20 22 21 17 21 16 15 18 21 24 22 19 20 18 21 21 20 18 18 16 16 15 16 18 14 11 10 11 5 9 7 11 6 9 9 10 8 9 10 15 15 17 17 17 20 20 22 26 26 28 28 28 26 24 24 26 29 28 29 28 28 28 27 27 27 28 29 29 29 28 28 28 27 26 25 24 24 24 23 21 19 17 15 14 13 11
21 20 19 18 21 23 22 20 20 21 21 23 23 23 22 21 23 19 19 18 16 16 14 14 12 10 9 9 7 10 10 8 9 10 12 12 7 10 12 15 16 15 15 17 20 21 23 24 24 24 27 28 26 25 27 29 29 30 30 30 30 30 29 29 28 28 29 29 29 24 28 28 28 27 26 26 25 23 22 21 20 19 17 15 13 12 11
19 20 18 19 16 18 22 22 22 23 23 25 23 20 17 21 20 17 18 21 17 16 15 12 12 11 8 11 13 10 8 10 8 8 11 14 11 13 15 17 18 17 19 22 22 23 24 25 26 28 28 27 27 28 29 29 29 29 29 29 30 30 29 29 29 30 29 29 29 28 29 28 28 27 26 24 22 21 20 19 19 20 18 14 13 12 11